• In Moldova, Republic
  • List of Countries
  • For 7 days
  • Water Temperature
  • Satellite Maps
  • Weather Map
  • Weather Widgets
  • user-avatar
    Login

    Hourly Weather Innsbruck

    Today, 19 June, Tuesday

    Time Temperature Precipitation Wind Pressure Humidity
    00:00 +6°C° 0 mm 1 mps 600 mmHg 94%
    01:00 +5°C° 0 mm 1 mps 600 mmHg 95%
    02:00 +5°C° 0 mm 1 mps 600 mmHg 95%
    03:00 +5°C° 0 mm 1 mps 600 mmHg 94%
    04:00 +5°C° 0 mm 1 mps 600 mmHg 94%
    05:00 +6°C° 0 mm 1 mps 601 mmHg 89%
    06:00 +8°C° 0 mm 1 mps 602 mmHg 84%
    07:00 +9°C° 0 mm 2 mps 603 mmHg 86%
    08:00 +10°C° 0 mm 2 mps 603 mmHg 80%
    09:00 +12°C° 0 mm 2 mps 604 mmHg 73%
    10:00 +14°C° 0 mm 2 mps 604 mmHg 66%
    11:00 +15°C° 0 mm 2 mps 604 mmHg 62%
    12:00 +16°C° 0 mm 2 mps 605 mmHg 58%
    13:00 +17°C° 0 mm 2 mps 605 mmHg 56%
    14:00 +17°C° 0 mm 2 mps 605 mmHg 56%
    15:00 +17°C° 0 mm 2 mps 605 mmHg 55%
    16:00 +17°C° 0 mm 2 mps 605 mmHg 54%
    17:00 +16°C° 0 mm 2 mps 604 mmHg 61%
    18:00 +15°C° 0 mm 2 mps 604 mmHg 68%
    19:00 +14°C° 0 mm 2 mps 603 mmHg 75%
    20:00 +12°C° 0 mm 2 mps 603 mmHg 81%
    21:00 +10°C° 0 mm 1 mps 602 mmHg 88%
    22:00 +8°C° 0 mm 1 mps 602 mmHg 95%
    23:00 +7°C° 0 mm 1 mps 602 mmHg 95%

    Tomorrow, 20 June, Wednesday

    Time Temperature Precipitation Wind Pressure Humidity
    00:00 +7°C° 0 mm 1 mps 601 mmHg 95%
    01:00 +6°C° 0 mm 1 mps 601 mmHg 95%
    02:00 +6°C° 0 mm 1 mps 601 mmHg 93%
    03:00 +6°C° 0 mm 1 mps 600 mmHg 92%
    04:00 +6°C° 0 mm 1 mps 600 mmHg 91%
    05:00 +8°C° 0 mm 1 mps 601 mmHg 83%
    06:00 +9°C° 0 mm 0 mps 602 mmHg 75%
    07:00 +12°C° 0 mm 0 mps 603 mmHg 68%
    08:00 +13°C° 0 mm 0 mps 604 mmHg 60%
    09:00 +16°C° 0 mm 1 mps 605 mmHg 53%
    10:00 +19°C° 0 mm 1 mps 605 mmHg 46%
    11:00 +20°C° 0 mm 1 mps 605 mmHg 45%
    12:00 +21°C° 0 mm 1 mps 605 mmHg 43%
    13:00 +20°C° 0 mm 2 mps 605 mmHg 42%
    14:00 +20°C° 0.1 mm 2 mps 605 mmHg 46%
    15:00 +19°C° 0.1 mm 2 mps 605 mmHg 50%
    16:00 +19°C° 0.1 mm 2 mps 604 mmHg 55%
    17:00 +18°C° 0.5 mm 2 mps 604 mmHg 63%
    18:00 +16°C° 0.5 mm 1 mps 603 mmHg 71%
    19:00 +15°C° 0.5 mm 1 mps 603 mmHg 79%
    20:00 +13°C° 0.4 mm 1 mps 602 mmHg 84%
    21:00 +12°C° 0.4 mm 1 mps 601 mmHg 90%
    22:00 +10°C° 0.4 mm 1 mps 601 mmHg 95%
    23:00 +10°C° 0.1 mm 1 mps 601 mmHg 95%

    Day after tomorrow, 21 June, Thursday

    Time Temperature Precipitation Wind Pressure Humidity
    00:00 +9°C° 0.1 mm 1 mps 600 mmHg 94%
    01:00 +9°C° 0.1 mm 1 mps 600 mmHg 94%
    02:00 +9°C° 0 mm 1 mps 600 mmHg 94%
    03:00 +8°C° 0 mm 1 mps 599 mmHg 94%
    04:00 +8°C° 0 mm 1 mps 599 mmHg 94%
    05:00 +10°C° 0.1 mm 1 mps 600 mmHg 88%
    06:00 +12°C° 0.1 mm 1 mps 600 mmHg 83%
    07:00 +14°C° 0.1 mm 1 mps 601 mmHg 78%
    08:00 +15°C° 0.1 mm 1 mps 602 mmHg 71%
    09:00 +18°C° 0.1 mm 1 mps 602 mmHg 64%
    10:00 +19°C° 0.1 mm 1 mps 602 mmHg 57%
    11:00 +20°C° 0.7 mm 1 mps 602 mmHg 57%
    12:00 +19°C° 0.7 mm 2 mps 602 mmHg 56%
    13:00 +19°C° 0.7 mm 2 mps 602 mmHg 56%
    14:00 +19°C° 1.1 mm 2 mps 601 mmHg 61%
    15:00 +18°C° 1.1 mm 3 mps 601 mmHg 66%
    16:00 +17°C° 1.1 mm 3 mps 600 mmHg 71%
    17:00 +16°C° 1.3 mm 3 mps 600 mmHg 77%
    18:00 +14°C° 1.3 mm 2 mps 599 mmHg 84%
    19:00 +13°C° 1.3 mm 2 mps 599 mmHg 90%
    20:00 +12°C° 0.7 mm 2 mps 599 mmHg 92%
    21:00 +10°C° 0.7 mm 2 mps 599 mmHg 94%
    22:00 +9°C° 0.7 mm 2 mps 599 mmHg 96%
    23:00 +8°C° 0.3 mm 2 mps 599 mmHg 96%

    22 June, Friday

    Time Temperature Precipitation Wind Pressure Humidity
    00:00 +7°C° 0.3 mm 2 mps 599 mmHg 97%
    01:00 +7°C° 0.3 mm 2 mps 598 mmHg 97%
    02:00 +6°C° 0.1 mm 2 mps 598 mmHg 97%
    03:00 +6°C° 0.1 mm 2 mps 598 mmHg 97%
    04:00 +5°C° 0.1 mm 2 mps 598 mmHg 97%
    05:00 +5°C° 0.1 mm 2 mps 598 mmHg 95%
    06:00 +5°C° 0.1 mm 2 mps 598 mmHg 93%
    07:00 +5°C° 0.1 mm 2 mps 598 mmHg 92%
    08:00 +5°C° 0 mm 2 mps 598 mmHg 87%
    09:00 +5°C° 0 mm 3 mps 598 mmHg 82%
    10:00 +7°C° 0 mm 3 mps 599 mmHg 77%
    11:00 +8°C° 0 mm 3 mps 599 mmHg 69%
    12:00 +9°C° 0 mm 3 mps 599 mmHg 62%
    13:00 +10°C° 0 mm 3 mps 600 mmHg 55%
    14:00 +10°C° 0 mm 3 mps 600 mmHg 54%
    15:00 +10°C° 0 mm 3 mps 600 mmHg 53%
    16:00 +10°C° 0 mm 3 mps 600 mmHg 52%
    17:00 +8°C° 0 mm 3 mps 600 mmHg 59%
    18:00 +7°C° 0 mm 3 mps 599 mmHg 66%
    19:00 +5°C° 0 mm 3 mps 599 mmHg 73%
    20:00 +5°C° 0 mm 2 mps 599 mmHg 79%
    21:00 +4°C° 0 mm 2 mps 599 mmHg 84%
    22:00 +2°C° 0 mm 2 mps 599 mmHg 90%
    23:00 +3°C° 0 mm 1 mps 599 mmHg 91%

    23 June, Saturday

    Time Temperature Precipitation Wind Pressure Humidity
    00:00 +2°C° 0 mm 1 mps 599 mmHg 92%
    01:00 +2°C° 0 mm 1 mps 599 mmHg 92%
    02:00 +2°C° 0 mm 1 mps 598 mmHg 93%
    03:00 +1°C° 0 mm 1 mps 598 mmHg 93%
    04:00 +1°C° 0 mm 1 mps 598 mmHg 94%
    05:00 +2°C° 0 mm 1 mps 598 mmHg 85%
    06:00 +4°C° 0 mm 1 mps 599 mmHg 77%
    07:00 +5°C° 0 mm 1 mps 600 mmHg 69%
    08:00 +7°C° 0 mm 1 mps 600 mmHg 60%
    09:00 +8°C° 0 mm 2 mps 601 mmHg 51%
    10:00 +10°C° 0 mm 2 mps 602 mmHg 42%
    11:00 +12°C° 0 mm 2 mps 602 mmHg 41%
    12:00 +13°C° 0 mm 2 mps 602 mmHg 39%
    13:00 +13°C° 0 mm 3 mps 602 mmHg 38%
    14:00 +12°C° 0 mm 3 mps 602 mmHg 41%
    15:00 +12°C° 0 mm 3 mps 602 mmHg 45%
    16:00 +12°C° 0 mm 3 mps 601 mmHg 48%
    17:00 +10°C° 0 mm 3 mps 601 mmHg 57%
    18:00 +9°C° 0 mm 3 mps 600 mmHg 66%
    19:00 +7°C° 0 mm 2 mps 600 mmHg 75%
    20:00 +6°C° 0.1 mm 2 mps 599 mmHg 82%
    21:00 +5°C° 0.1 mm 2 mps 599 mmHg 88%
    22:00 +5°C° 0.1 mm 1 mps 599 mmHg 95%
    23:00 +4°C° 0 mm 1 mps 598 mmHg 95%

    24 June, Sunday

    Time Temperature Precipitation Wind Pressure Humidity
    00:00 +3°C° 0 mm 1 mps 598 mmHg 96%
    01:00 +3°C° 0 mm 1 mps 598 mmHg 96%
    02:00 +3°C° 0 mm 1 mps 597 mmHg 96%
    03:00 +2°C° 0 mm 1 mps 597 mmHg 96%
    04:00 +2°C° 0 mm 1 mps 597 mmHg 96%
    05:00 +4°C° 0 mm 1 mps 598 mmHg 89%
    06:00 +4°C° 0 mm 0 mps 598 mmHg 82%
    07:00 +6°C° 0 mm 0 mps 599 mmHg 75%
    08:00 +8°C° 0 mm 1 mps 600 mmHg 66%
    09:00 +10°C° 0 mm 1 mps 600 mmHg 57%
    10:00 +12°C° 0 mm 2 mps 601 mmHg 48%
    11:00 +12°C° 0 mm 2 mps 601 mmHg 48%
    12:00 +13°C° 0 mm 2 mps 601 mmHg 49%
    13:00 +13°C° 0 mm 2 mps 601 mmHg 49%
    14:00 +11°C° 0.2 mm 3 mps 601 mmHg 54%
    15:00 +11°C° 0.2 mm 3 mps 600 mmHg 59%
    16:00 +11°C° 0.2 mm 3 mps 600 mmHg 64%
    17:00 +10°C° 0.2 mm 3 mps 600 mmHg 70%
    18:00 +9°C° 0.2 mm 2 mps 599 mmHg 76%
    19:00 +8°C° 0.2 mm 2 mps 599 mmHg 82%
    20:00 +6°C° 0.1 mm 2 mps 599 mmHg 87%
    21:00 +6°C° 0.1 mm 1 mps 599 mmHg 91%
    22:00 +5°C° 0.1 mm 1 mps 598 mmHg 96%
    23:00 +4°C° 0 mm 1 mps 598 mmHg 96%
    Show more